Weather History for EGDR - February, 2014

Change the Weather History Date:

Sunday, February 9, 2014

  Actual Average Record
Temperature  
Mean Temperature 42 °F -  
Max Temperature 46 °F 47 °F 53 °F (2008)
Min Temperature 38 °F 39 °F 26 °F (2012)
Degree Days  
Heating Degree Days 23    
Moisture  
Dew Point 35 °F    
Average Humidity 68    
Maximum Humidity 81    
Minimum Humidity 44    
Precipitation  
Precipitation 0.02 in - - ()
Sea Level Pressure  
Sea Level Pressure 29.17 in    
Wind  
Wind Speed 20 mph ()    
Max Wind Speed 31 mph    
Max Gust Speed 60 mph    
Visibility 7.1 miles    
Events Rain , Hail    
Averages and records for this station are not official NWS values.
T = Trace of Precipitation, MM = Missing Value Source: Averaged Metar Reports

Daily Weather History Graph

Daily Weather History Graph

Search for Another Location

Airport or City:

Trip Planner

Search our weather history database for the weather conditions in past years. The results will help you decide how hot, cold, wet, or windy it might be!

Date:

Astronomy

Feb. 09, 2014 Rise Set
Actual Time 7:42 AM GMT 5:28 PM GMT
Civil Twilight 7:08 AM GMT 6:02 PM GMT
Nautical Twilight 6:30 AM GMT 6:41 PM GMT
Astronomical Twilight 5:52 AM GMT 7:18 PM GMT
Moon 12:47 PM GMT (2/9) 3:45 AM GMT (2/9)
Length of Visible Light 10h 54m
Length of Day
9h 46m
Waxing Gibbous, 75% of the Moon is Illuminated
Feb 9
Waxing Gibbous
Feb 14
Full
Feb 22
Last Quarter
Mar 1
New
Mar 8
First Quarter

Hourly Weather History & Observations

Time (GMT) Temp. Windchill Dew Point Humidity Pressure Visibility Wind Dir Wind Speed Gust Speed Precip Events Conditions
12:00 AM 43 °F - 36 °F 68% 29.01 in 4 mi West 27.6 mph - - Rain Light Rain Showers
12:50 AM 44.6 °F 34.9 °F 33.8 °F 66% 29.00 in 6.2 mi West 28.8 mph 59.8 mph N/A   Mostly Cloudy
1:00 AM 45 °F - 33 °F 53% 29.02 in 6 mi West 28.8 mph - - Rain Light Rain Showers
1:50 AM 44.6 °F 35.3 °F 35.6 °F 71% 29.00 in 5.6 mi West 26.5 mph 52.9 mph N/A   Mostly Cloudy
2:00 AM 45 °F - 35 °F 58% 29.03 in 6 mi West 26.5 mph - -   Mostly Cloudy
2:50 AM 42.8 °F 34.0 °F 37.4 °F 81% 29.03 in 5.6 mi West 20.7 mph 47.2 mph N/A   Mostly Cloudy
3:00 AM 43 °F - 37 °F 72% 29.05 in 6 mi West 20.7 mph - - Rain Light Rain Showers
3:50 AM 42.8 °F 32.1 °F 33.8 °F 70% 29.06 in 5.6 mi West 31.1 mph 54.1 mph N/A Rain Light Rain Showers
4:00 AM 44 °F - 34 °F 59% 29.08 in 6 mi West 31.1 mph - - Rain Light Rain Showers
4:50 AM 41.0 °F 30.2 °F 33.8 °F 76% 29.09 in 6.2 mi West 27.6 mph 49.5 mph N/A Rain Light Rain Showers
5:00 AM 41 °F - 33 °F 64% 29.12 in 7 mi West 27.6 mph - - Rain Light Rain Showers
5:50 AM 41.0 °F 31.1 °F 33.8 °F 76% 29.12 in 6.2 mi WNW 23.0 mph 40.3 mph N/A   Scattered Clouds
6:00 AM 41 °F - 34 °F 68% 29.13 in 9 mi WNW 23.0 mph - - Rain Light Rain Showers
6:50 AM 42.8 °F 32.7 °F 30.2 °F 61% 29.12 in 6.2 mi West 27.6 mph 48.3 mph N/A   Mostly Cloudy
7:00 AM 44 °F - 31 °F 47% 29.15 in 7 mi West 27.6 mph - -   Mostly Cloudy
7:50 AM 42.8 °F 33.1 °F 30.2 °F 61% 29.15 in 6.2 mi West 25.3 mph 46.0 mph N/A   Haze
8:00 AM 43 °F - 30 °F 49% 29.18 in 10 mi West 25.3 mph - -   Haze
8:50 AM 44.6 °F 35.9 °F 30.2 °F 57% 29.18 in 6.2 mi West 23.0 mph 44.9 mph N/A   Partly Cloudy
9:00 AM 44 °F - 29 °F 44% 29.20 in 9 mi West 23.0 mph - -   Partly Cloudy
9:50 AM 44.6 °F 36.6 °F 32.0 °F 61% 29.21 in 5.0 mi West 19.6 mph 38.0 mph N/A   Scattered Clouds
10:00 AM 45 °F - 31 °F 46% 29.22 in 5 mi West 19.6 mph - -   Mostly Cloudy
10:50 AM 41.0 °F 31.4 °F 33.8 °F 76% 29.24 in 6.2 mi West 21.9 mph 42.6 mph N/A   Scattered Clouds
11:00 AM 41 °F - 35 °F 70% 29.25 in 7 mi West 21.9 mph - - Hail Light Hail Showers
11:50 AM 44.6 °F 37.2 °F 32.0 °F 61% 29.24 in 6.2 mi West 17.3 mph 35.7 mph N/A   Scattered Clouds
12:00 PM 45 °F - 32 °F 48% 29.24 in 11 mi West 17.3 mph - -   Mostly Cloudy
12:27 PM 41.0 °F 30.7 °F 33.8 °F 76% 29.24 in 5.0 mi West 25.3 mph 44.9 mph N/A   Scattered Clouds
12:50 PM 44.6 °F 37.8 °F 33.8 °F 66% 29.24 in 6.2 mi West 15.0 mph 31.1 mph N/A   Mostly Cloudy
1:00 PM 44 °F - 33 °F 55% 29.25 in 9 mi West 15.0 mph - - Hail Light Hail Showers
1:50 PM 42.8 °F 34.3 °F 32.0 °F 66% 29.21 in 6.2 mi West 19.6 mph 43.7 mph N/A Rain Light Rain Showers
2:00 PM 43 °F - 31 °F 52% 29.24 in 6 mi West 19.6 mph - - Rain Light Rain Showers
2:50 PM 44.6 °F 37.4 °F 37.4 °F 76% 29.21 in 5.0 mi West 16.1 mph 32.2 mph N/A Hail Hail
3:00 PM 44 °F - 37 °F 68% 29.23 in 5 mi West 16.1 mph - - Hail Light Hail Showers
3:50 PM 42.8 °F 37.5 °F 37.4 °F 81% 29.21 in 6.2 mi West 9.2 mph - N/A   Mostly Cloudy
4:00 PM 44 °F - 37 °F 69% 29.22 in 10 mi West 9.2 mph - - Hail Light Hail Showers
4:50 PM 42.8 °F 36.2 °F 35.6 °F 76% 29.21 in 6.2 mi West 12.7 mph 24.2 mph N/A   Mostly Cloudy
5:00 PM 42 °F - 36 °F 71% 29.21 in 11 mi West 12.7 mph - -   Partly Cloudy
5:50 PM 42.8 °F 38.0 °F 37.4 °F 81% 29.21 in 6.2 mi West 8.1 mph 19.6 mph N/A   Mostly Cloudy
6:00 PM 43 °F - 36 °F 70% 29.22 in 11 mi West 8.1 mph - -   Overcast
6:50 PM 42.8 °F 36.6 °F 37.4 °F 81% 29.21 in 6.2 mi WSW 11.5 mph - N/A Rain Light Rain Showers
7:00 PM 43 °F - 37 °F 72% 29.22 in 9 mi WSW 11.5 mph - - Rain Light Rain Showers
7:50 PM 42.8 °F 38.0 °F 37.4 °F 81% 29.21 in 6.2 mi SSW 8.1 mph - N/A   Overcast
8:00 PM 42 °F - 38 °F 80% 29.22 in 11 mi SSW 8.1 mph - - Rain Light Rain Showers
8:50 PM 42.8 °F 36.6 °F 37.4 °F 81% 29.21 in 6.2 mi WSW 11.5 mph - N/A   Mostly Cloudy
9:00 PM 42 °F - 37 °F 76% 29.22 in 11 mi WSW 11.5 mph - -   Haze
9:50 PM 42.8 °F 36.6 °F 37.4 °F 81% 29.18 in 6.2 mi SW 11.5 mph - N/A   Mostly Cloudy
10:00 PM 43 °F - 38 °F 76% 29.21 in 11 mi SW 11.5 mph - -   Haze
10:50 PM 42.8 °F 36.2 °F 35.6 °F 76% 29.18 in 6.2 mi WSW 12.7 mph - N/A   Partly Cloudy
11:00 PM 42 °F - 36 °F 71% 29.21 in 12 mi WSW 12.7 mph - -   Scattered Clouds
11:50 PM 42.8 °F 35.8 °F 35.6 °F 76% 29.18 in 6.2 mi WSW 13.8 mph - N/A   Partly Cloudy